TimeMDT,TemperatureF,Dew PointF,Humidity,Sea Level PressureIn,VisibilityMPH,Wind Direction,Wind SpeedMPH,Gust SpeedMPH,PrecipitationIn,Events,Conditions,WindDirDegrees,DateUTC
12:53 AM,51.1,28.0,41,29.89,10.0,Calm,Calm,-,N/A,,Mostly Cloudy,0,2013-04-01 06:53:00
1:53 AM,48.0,28.0,46,29.90,10.0,WNW,3.5,-,N/A,,Mostly Cloudy,300,2013-04-01 07:53:00
2:53 AM,45.0,28.0,52,29.89,10.0,North,9.2,-,N/A,,Clear,10,2013-04-01 08:53:00
3:53 AM,42.1,27.0,55,29.89,10.0,NNE,8.1,-,N/A,,Clear,30,2013-04-01 09:53:00
4:53 AM,39.9,28.0,63,29.91,10.0,NNE,6.9,-,N/A,,Partly Cloudy,30,2013-04-01 10:53:00
5:53 AM,44.1,30.9,60,29.89,10.0,NE,6.9,-,0.00,,Scattered Clouds,50,2013-04-01 11:53:00
6:53 AM,41.0,28.0,60,29.90,10.0,NNW,4.6,-,N/A,,Clear,330,2013-04-01 12:53:00
12:53 PM,59.0,28.0,31,29.80,10.0,SSE,15.0,23.0,N/A,,Scattered Clouds,160,2013-04-01 18:53:00
1:53 PM,46.0,35.1,66,29.90,7.0,WSW,21.9,28.8,0.03,Rain,Light Rain,240,2013-04-01 19:53:00
1:58 PM,41.0,33.8,76,29.94,2.0,West,21.9,28.8,0.07,Rain,Heavy Rain,270,2013-04-01 19:58:00
2:15 PM,39.2,35.6,87,29.94,10.0,NW,17.3,25.3,0.19,Rain,Light Rain,310,2013-04-01 20:15:00
2:53 PM,48.0,39.0,71,29.89,10.0,North,12.7,-,0.19,,Mostly Cloudy,360,2013-04-01 20:53:00
3:00 PM,-9999,-9999,N/A,-9999,-9999.0,North,-9999.0,-,N/A,,Unknown,0,2013-04-01 21:00:00
3:53 PM,53.1,37.0,55,29.87,-9999.0,ENE,11.5,-,N/A,,Unknown,60,2013-04-01 21:53:00
4:53 PM,55.0,33.1,43,29.86,10.0,North,11.5,17.3,N/A,,Scattered Clouds,10,2013-04-01 22:53:00
5:16 PM,50.0,35.6,58,29.92,10.0,WNW,18.4,25.3,N/A,,Mostly Cloudy,300,2013-04-01 23:16:00
5:53 PM,46.0,36.0,68,29.91,10.0,North,10.4,-,0.02,,Overcast,360,2013-04-01 23:53:00
6:53 PM,48.0,35.1,61,29.91,10.0,NNE,10.4,-,0.00,,Partly Cloudy,30,2013-04-02 00:53:00
7:53 PM,45.0,33.1,63,29.92,10.0,North,8.1,-,N/A,,Clear,360,2013-04-02 01:53:00
8:53 PM,45.0,30.0,56,29.89,10.0,NNW,10.4,-,N/A,,Scattered Clouds,330,2013-04-02 02:53:00
9:53 PM,42.1,30.0,62,29.91,10.0,Calm,Calm,-,N/A,,Mostly Cloudy,0,2013-04-02 03:53:00
10:53 PM,44.1,30.0,58,29.88,10.0,NNW,8.1,-,N/A,,Clear,340,2013-04-02 04:53:00
11:53 PM,42.1,30.9,65,29.87,10.0,NNW,6.9,-,N/A,,Partly Cloudy,340,2013-04-02 05:53:00